Regional Weather Roundup
Issued by NWS Memphis, TN

Home | Current Version | Previous Version | Text Only | Print | Product List | Glossary On
Versions: 1 2 3 4 5 6 7 8 9 10 11 12 13 14 15 16 17 18 19 20 21 22 23 24 25 26 27 28 29 30 31 32 33 34 35 36 37 38 39 40 41 42 43 44 45 46 47 48 49 50
000
ASUS44 KMEG 241210
RWRMEG
MEMPHIS CWA HOURLY WEATHER ROUNDUP
NATIONAL WEATHER SERVICE MEMPHIS TN
700 AM CDT MON APR 24 2017

...WEST TENNESSEE...

CITY           SKY/WX    TMP DP  RH WIND       PRES   REMARKS
MEMPHIS INTL   CLEAR     51  47  86 NW3       29.89R
6HR MIN TEMP:  48; 6HR MAX TEMP:  53;

NWS MEMPHIS      N/A     49 N/A N/A MISG        N/A
JACKSON        RAIN      50  47  89 CALM      29.88R
6HR MIN TEMP:  49; 6HR MAX TEMP:  53; 6HR PCP:  0.11;

SOMERVILLE     CLEAR     48  48 100 N3        29.88R
BOLIVAR        CLEAR     50  46  87 NW5       29.87R
LEXINGTON      CLOUDY    52  50  93 N5        29.85R
SAVANNAH       CLOUDY    54  52  94 N3        29.85R
DYERSBURG      CLEAR     51  45  79 N5        29.90R
6HR MIN TEMP:  46; 6HR MAX TEMP:  51;

UNION CITY     CLEAR     48  45  87 N3        29.89R
PARIS          CLOUDY    48  45  87 N5        29.87R
HUNTINGDON     CLOUDY    54  48  82 N7        29.86R


...EASTERN ARKANSAS...

CITY           SKY/WX    TMP DP  RH WIND       PRES   REMARKS
JONESBORO      CLEAR     50  38  63 N6        29.92R
6HR MIN TEMP:  49; 6HR MAX TEMP:  56;

WEST MEMPHIS   CLEAR     49  46  90 NW6       29.90R
6HR MIN TEMP:  47; 6HR MAX TEMP:  53;

BATESVILLE     CLEAR    N/A N/A N/A W5        29.96R
NEWPORT        CLEAR     47  39  74 NW8       29.94R
6HR MIN TEMP:  44; 6HR MAX TEMP:  50;

WALNUT RIDGE   CLEAR     46  36  66 NW8       29.94R
6HR MIN TEMP:  45; 6HR MAX TEMP:  52;

BLYTHEVILLE    CLEAR     47  45  93 N7        29.91R
6HR MIN TEMP:  45; 6HR MAX TEMP:  50;

SEARCY         CLEAR     46  42  86 NW3       29.96R
6HR MIN TEMP:  43; 6HR MAX TEMP:  51;

STUTTGART      CLEAR     50  37  62 NW6       29.95R
6HR MIN TEMP:  48; 6HR MAX TEMP:  54;

PINE BLUFF     CLEAR     49  43  80 CALM      29.95R
6HR MIN TEMP:  47; 6HR MAX TEMP:  51;

MONTICELLO     CLEAR     51  44  77 W7        29.94R
6HR MIN TEMP:  46; 6HR MAX TEMP:  51;



...NORTH MISSISSIPPI...

CITY           SKY/WX    TMP DP  RH WIND       PRES   REMARKS
TUPELO         CLOUDY    53  50  89 NW7       29.85R
6HR MIN TEMP:  52; 6HR MAX TEMP:  54;

OXFORD         CLEAR     46  46 100 CALM      29.90R
OLIVE BRANCH   CLEAR    N/A N/A N/A NW7       29.88
TUNICA         CLEAR     48  45  87 NW6       29.92R
CORINTH        CLOUDY    54  50  87 NW8       29.86R
GREENWOOD      PTCLDY    47  47 100 CALM      29.90R
6HR MIN TEMP:  45; 6HR MAX TEMP:  50; 6HR PCP: TRACE;

COLUMBUS       CLOUDY    55  52  88 NW6       29.84R
6HR MIN TEMP:  54; 6HR MAX TEMP:  55;

STARKVILLE     CLOUDY    52  50  93 NW3       29.87R
GOLDEN TRIANGL CLOUDY    54  46  76 NW5       29.81R


...SOUTHEAST MISSOURI...

CITY           SKY/WX    TMP DP  RH WIND       PRES   REMARKS
KENNETT        CLEAR     52  41  66 N10       29.90R
MALDEN         CLEAR     50  39  66 NW6       29.93R
WEST PLAINS    CLEAR     42  34  73 CALM      29.98R
6HR MIN TEMP:  39; 6HR MAX TEMP:  50;

POPLAR BLUFF   CLEAR     46  37  71 NW7       29.93R
6HR MIN TEMP:  44; 6HR MAX TEMP:  51;

CAPE GIRARDEAU CLEAR     43  38  82 W6        29.93R
6HR MIN TEMP:  39; 6HR MAX TEMP:  48;



...NORTHWEST ALABAMA...

CITY           SKY/WX    TMP DP  RH WIND       PRES   REMARKS
MUSCLE SHOALS  CLOUDY    54  51  90 N7        29.85R FOG
6HR MIN TEMP:  54; 6HR MAX TEMP:  55;



...MIDDLE TENNESSEE...

CITY           SKY/WX    TMP DP  RH WIND       PRES   REMARKS
NASHVILLE      CLOUDY    55  52  89 N3        29.85R
6HR MIN TEMP:  53; 6HR MAX TEMP:  56;

CLARKSVILLE    SUNNY     53  49  86 NE5       29.86R
6HR MIN TEMP:  51; 6HR MAX TEMP:  54;

COLUMBIA       CLOUDY   N/A N/A N/A N3        29.82S


...WESTERN KENTUCKY...

CITY           SKY/WX    TMP DP  RH WIND       PRES   REMARKS
PADUCAH        CLEAR     50  40  68 CALM      29.90R
6HR MIN TEMP:  47; 6HR MAX TEMP:  51;

FORT CAMPBELL  MOSUNNY   53  49  87 N7        29.86R
6HR MIN TEMP:  49; 6HR MAX TEMP:  54;



...CENTRAL ARKANSAS...

CITY           SKY/WX    TMP DP  RH WIND       PRES   REMARKS
LITTLE ROCK    PTCLDY    48  45  89 W3        29.96R
6HR MIN TEMP:  45; 6HR MAX TEMP:  53;



SKY/WX REPORTED AS FAIR MEANS FEW OR NO CLOUDS BELOW
12 THOUSAND FEET.





USA.gov is the U.S. government's official web portal to all federal, state and local government web resources and services.